www.pogodaiklimat.ru

Погода и климат >> Архив погоды >> Аргентина >> Chamical


ПОГОДА в Chamical

  • Прогноз погоды в Chamical
  • Монитор погоды в Chamical
  • Климат города

АРХИВ ПОГОДЫ в Chamical

Время (UTC), дата Ветер
(напр.,м/с)
 
Видим.   Явления Облачность Т
(С)
Тd
(С)
f
(%)
Тe
(С)
Тes
(С)
Комфортность P
(гПа)
Po
(гПа)
Тmin
(С)
Tmax
(С)
R
(мм)
R24
(мм)
S
(см)
03 14.11 ЮВ 3 20 км ясно +17.8 +13.7 77 +18 +18 1014.9 962.0
06 14.11 штиль 0 20 км ясно +15.2 +13.1 87 +15 +15 1013.3 960.0
09 14.11 штиль 0 20 км ясно +10.0 +8.4 90 +9 +9 1013.1 960.1
12 14.11 штиль 0 20 км ясно +19.6 +9.8 53 +21 +28 комфорт 1014.5 961.7 +8.2 +20.9
15 14.11 штиль 0 20 км ясно +26.0 +9.9 36 +27 +52 опасность
солнечного
удара
1013.2 960.9
18 14.11 штиль 0 20 км ясно +29.2 +6.7 24 +28 +53 опасность
солнечного
удара
1009.6 957.6
21 14.11 СВ 3 20 км ясно +29.8 +4.1 20 +28 +32 жарко 1007.6 955.3
00 15.11 штиль 0 20 км ясно +23.0 +7.4 37 +24 +24 комфорт 1009.5 957.3 +19.5 +30.6
03 15.11 Ю 1 20 км ясно +19.2 +12.7 66 +21 +21 комфорт 1009.5 957.4
06 15.11 штиль 0 20 км ясно +18.7 +14.9 79 +20 +20 1007.8 956.1
09 15.11 штиль 0 20 км ясно +15.6 +13.2 86 +15 +15 1005.5 953.7
12 15.11 ЮВ 2 20 км ясно +21.6 +16.1 71 +25 +31 комфорт 1005.6 953.8 +14.9 +23.5
15 15.11 штиль 0 20 км ясно +29.0 +20.6 61 +36 +62 опасность
солнечного
удара
1004.5 953.0
18 15.11 В 3 20 км ясно +35.1 +23.8 52 +46 +62 опасность
перегрева
1001.0 950.2
21 15.11 В 5 20 км ясно +34.0 +23.7 55 +45 +48 опасность
перегрева
999.6 948.5
00 16.11 штиль 0 20 км ясно +30.3 +24.3 70 +42 +42 опасность
перегрева
1002.9 951.8 +21.0 +36.5
03 16.11 Ю 2 20 км ясно +25.4 +14.5 51 +28 +28 жарко 1007.6 956.5
06 16.11 Ю 5 20 км ясно +23.7 +13.2 52 +26 +26 жарко 1009.6 958.6
09 16.11 ЮВ 4 20 км ясно +21.7 +12.1 54 +24 +24 комфорт 1010.7 959.4
12 16.11 ЮВ 5 20 км 4/0
[Ac und]
+23.0 +16.7 68 +28 +30 душно 1012.1 960.6 +21.3 +31.0
15 16.11 В 5 20 км 1/1 1200 м
[Cu hum]
+28.0 +20.6 64 +35 +44 очень
душно
1009.8 958.4
18 16.11 СВ 6 20 км 4/4 1200 м
[Cu hum]
+32.0 +23.6 61 +43 +47 опасность
перегрева
1003.7 952.9
21 16.11 СВ 5 20 км 4/4 1200 м
[Cu hum]
+32.0 +23.4 60 +43 +44 опасность
перегрева
1000.9 950.1
00 17.11 СВ 4 20 км 4/4 1200 м
[Sc]
+28.6 +22.0 68 +37 +37 очень
душно
1002.1 951.0 +22.9 +32.2
03 17.11 СВ 2 20 км 5/0
[Ac und Cs]
+27.1 +21.3 71 +34 +34 очень
душно
1004.5 953.6
06 17.11 штиль 0 20 км ясно +24.1 +19.1 74 +29 +29 душно 1003.4 952.6
09 17.11 Ю 1 20 км ясно +20.4 +17.1 81 +25 +25 комфорт 1002.9 951.8
12 17.11 ЮВ 2 15 км мгла ясно +25.8 +16.5 56 +29 +35 душно 1003.4 952.5 +19.3 +28.6
15 17.11 В 1 15 км мгла 1/1 1050 м
[Cu med, cong Cs]
+32.9 +16.3 37 +36 +56 опасность
солнечного
удара
1001.8 951.4
18 17.11 ЮВ 4 15 км мгла 3/3 1200 м
[Cb calv]
+36.8 +12.1 23 +37 +45 очень
жарко
1000.1 949.8
21 17.11 Ю 3 20 км 1/1 1200 м
[Cu hum]
+36.5 +14.0 26 +37 +41 очень
жарко
999.3 948.8
00 18.11 ЮВ 13 15 км пыльный позёмок 1/1 1200 м
[Sc]
+29.6 +13.3 37 +31 +31 жарко 1005.6 954.6 +25.8 +37.4
03 18.11 ЮВ 14 20 км зарница 3/3 1050 м
[Cb calv]
+22.6 +17.1 71 +27 +27 душно 1011.9 960.6
06 18.11 ЮВ 13 20 км 8/8 1050 м
[Sc]
+21.2 +15.7 71 +24 +24 комфорт 1014.2 963.0
09 18.11 ЮВ 5 20 км 4/0
[Ac und]
+18.8 +13.0 69 +19 +19 1015.6 964.1
12 18.11 штиль 0 20 км 6/6 1200 м
[Sc]
+19.8 +13.4 67 +21 +24 комфорт 1018.0 966.0 +17.9 +29.6
15 18.11 штиль 0 20 км 9/9 1200 м
[Sc]
+23.0 +12.9 53 +26 +29 жарко 1018.6 966.2
18 18.11 штиль 0 20 км 8/4 1200 м
[Cu hum Ac trans]
+26.2 +12.5 43 +28 +37 жарко 1014.2 962.1
21 18.11 С 4 20 км 4/4 1200 м
[Cu hum]
+26.4 +11.9 40 +28 +30 жарко 1013.0 960.8
00 19.11 штиль 0 20 км ясно +24.0 +9.2 39 +25 +25 комфорт 1014.1 961.7 +19.4 +28.0
03 19.11 В 1 20 км ясно +19.6 +10.7 56 +22 +22 комфорт 1016.7 964.1
06 19.11 Ю 1 20 км ясно +18.1 +10.1 60 +19 +19 1013.8 961.4
09 19.11 ЮВ 1 20 км ясно +16.2 +9.9 66 +17 +17 1013.2 960.8
12 19.11 В 3 20 км ясно +21.2 +6.8 39 +22 +27 комфорт 1013.9 961.7 +15.6 +24.0
15 19.11 В 3 20 км ясно +26.8 +8.4 31 +27 +44 жарко 1011.1 959.2
18 19.11 СВ 5 20 км ясно +30.6 +13.9 36 +32 +42 жарко 1007.7 956.1
21 19.11 СВ 5 20 км ясно +30.8 +11.9 31 +31 +34 жарко 1005.7 954.1
00 20.11 СВ 2 20 км ясно +27.0 +14.8 47 +30 +30 душно 1007.8 956.1 +21.2 +32.0
03 20.11 штиль 0 20 км ясно +24.4 +11.8 45 +26 +26 жарко 1010.1 958.5
06 20.11 штиль 0 20 км ясно +22.4 +9.0 42 +24 +24 комфорт 1009.0 957.7
09 20.11 штиль 0 20 км ясно +19.0 +8.6 51 +20 +20 1009.5 957.8
12 20.11 ЮВ 5 20 км ясно +23.1 +10.5 45 +25 +28 комфорт 1011.1 959.4 +17.9 +27.5
15 20.11 штиль 0 20 км ясно +28.5 +13.5 40 +30 +56 опасность
солнечного
удара
1009.2 957.8
18 20.11 В 3 20 км ясно +32.5 +12.7 30 +33 +49 жарко 1006.1 955.0
21 20.11 СВ 4 20 км ясно +34.6 +14.0 29 +36 +39 душно 1003.7 952.6

 

Местоположение метеостанции Chamical (Аргентина): широта -30.36 долгота -66.28 высота над уровнем моря 461 м.

В архиве по умолчанию представлена погода в Chamical за последнюю неделю. Архивные данные за месяц целиком и за предыдущие месяцы, начиная с января 2011 года, Вы можете получить, выбрав интересующий диапазон дат из раскрывающегося списка и нажав кнопку "Ввод!".


*Определитесь, кто Вы:
робот инопланетянин человек

Внимание! Время в таблицах - всемирное. Для получения местного времени необходимо прибавить поправку, которая в Chamical равна -3 ч.

Смотрите также архив погоды в соседних городах и на ближайших метеорологических станциях:

Погода в La Rioja (Аргентина) (120 км)
Погода в San Fernando del Valle de Catamarca (Аргентина) (202 км)
Погода в Villa Dolores (Аргентина) (208 км)
Погода в Cordoba (Аргентина) (224 км)
Погода в San Juan (Аргентина) (234 км)
Погода в Villa de Maria del Rio Seco (Аргентина) (255 км)
Погода в Pilar (Аргентина) (271 км)
Погода в San Luis (Аргентина) (323 км)
Погода в Santiago del Estero (Аргентина) (347 км)
Погода в Rio Cuarto (Аргентина) (358 км)

Пояснения к столбцам:

Ветер - указаны скорость ветра в м/с - средняя за 10 мин, порывы в срок и между сроками (в фигурных скобках) и направление, откуда дует ветер: С - северный, СВ - северо-восточный, В - восточный, ЮВ - юго-восточный, Ю - южный, ЮЗ - юго-западный, З - западный, СЗ - северо-западный.
Видимость - горизонтальная дальность видимости в метрах или километрах. При видимости от 1 до 10 км при отсутствии осадков обычно наблюдается дымка, при ухудшении видимости до 1 км и менее - туман. В сухую погоду видимость может ухудшаться дымом, пылью или мглою.
Явления - указаны атмосферные явления, наблюдавшиеся в срок или в последний час перед сроком; фигурными скобками обозначены явления, наблюдавшиеся между сроками (за 1-3 часа до срока); квадратными скобками обозначены град или гололедные отложения с указанием их диаметра в мм.
Облачность - указаны через наклонную черту общая и нижняя облачность в баллах и высота нижней границы облаков в метрах; квадратными скобками обозначены формы облаков: Ci - перистые, Cs - перисто-слоистые, Cc - перисто-кучевые, Ac - высококучевые, As - высокослоистые, Sc - слоисто-кучевые, Ns - слоисто-дождевые, Cu - кучевые, Cb - кучево-дождевые. Подробнее классификацию облаков см. в Атласе облаков (PDF).
T - Температура воздуха - температура, измеренная на высоте 2 м над землей.
Td - Температура точки росы - температура, при понижении до которой содержащийся в воздухе водяной пар достигнет насыщения.
f - Относительная влажность воздуха - влажноcть воздуха, измеренная на высоте 2 м над землей.
Te - Эффективная температура - температура, которую ощущает одетый по сезону человек в тени. Характеристика душности погоды. При расчете учитывается влияние влажности воздуха и скорости ветра на теплоощущения человека.
Tes - Эффективная температура на солнце - температура, которую ощущает человек, с поправкой на солнечный нагрев. Характеристика знойности погоды. Зависит от высоты солнца над горизонтом, облачности и скорости ветра. Ночью, в пасмурную погоду, а также при ветре 12 м/с и более поправка равна нулю.
P - Атмосферное давление - приведенное к уровню моря атмосферное давление.
Po - Атмосферное давление - измеренное на уровне метеостанции атмосферное давление.
Tmin - Минимальная температура - минимум температуры воздуха на высоте 2 м над землей.
Tmax - Максимальная температура - максимум температуры воздуха на высоте 2 м над землей.
R - Количество осадков - Количество выпавших осадков за период времени, мм. При наведении курсора мыши на число - период времени, за который выпало указанное количество осадков.
R24 - Количество осадков - Количество выпавших осадков за 24 часа, мм.
S - Снежный покров - Высота снежного покрова, см. При наведении курсора мыши на число - состояние снежного покрова и степень покрытия местности в баллах.